OPTUS D3

Last updated on Thu Jul 03 2025 00:02:45 GMT+0000 (Coordinated Universal Time)

1 35756U 09044B 25183.54270611 -.00000140 00000+0 00000+0 0 9992 2 35756 0.6959 84.6220 0000503 271.9673 275.7317 1.00266896 58050
UTC large
Height (km)
Speed (km/s)
/
Latitude / Longitude
Inclination (degrees)
Orbital Period (minutes)
Azimuth
Elevation
Range (km)
Doppler Factor

Next 0 passes for location: London (51.5072 / 0.1276)

Sorry there are no passes over London.